Location: Bonnesvalyn
(49.1218°N, 3.3177°E)
Time: 07:20:41
(UTC+00:00)

Cosmos 968 Rocket - Pass Details

Date: 09 February 2023
Orbit: 739 x 770 km, 74.0° (Epoch: 23 March)

Event Time Altitude Azimuth Distance (km) Brightness Sun altitude
Rises 18:28:07 0° 192° (SSW) 3,204 6.9 -15.4°
Reaches altitude 10° 18:30:28 10° 190° (S) 2,288 6.1 -15.8°
Maximum altitude 18:35:37 66° 109° (ESE) 837 3.4 -16.6°
Drops below altitude 10° 18:40:50 10° 28° (NNE) 2,320 5.7 -17.5°
Enters shadow 18:41:28 - 27° (NNE) 2,567 5.9 -17.6°
